sat.trackr.live / text

‹ back to catalog

STARLINK-4446

NORAD 53505 · 2022-099AS

PAYLOAD ACTIVE UNKNOWN

§ Identity

Operator
Country
US
Launch date
2022-08-12
Launch site
AFWTR
Launch vehicle
Mass (kg)
RCS (m²)

Purposes: comms

External: N2YO · Heavens-Above · Gunter

§ Orbital elements

Epoch: 2026-05-24T21:24:09.468000Z

Period
91.46 min
Inclination
97.6046°
Eccentricity
0.0002037
Mean motion
15.74423785 rev/d
Perigee alt
344.9 km
Apogee alt
347.6 km
Semi-major
6,724.4 km
B*
4.7225e-4
RAAN
273.6116°
Arg perigee
257.4334°
Mean anomaly
102.6702°
Rev number
20,798

§ Raw data

STARLINK-44461 53505U 22099AS  26144.89177625  .00068576  00000+0  47225-3 0  99962 53505  97.6046 273.6116 0002037 257.4334 102.6702 15.74423785207988

JSON: /api/v1/satellites/53505 · /tle

For live sub-satellite position, see the globe view (requires WebGL).

§ Visibility from observer

Set your observer location to see the next 7 days of passes ≥ 10°. The values pass through the URL so the page stays shareable.

No JS? Fill the form by hand. The geolocation button needs JavaScript.